This is the latest recevied weather packets stored in our database for station/object JF7BTK-10. If no packets are shown the sender has not sent any weather packets the latest 10 day(s).
| Time | Temp. | Humidity | Pressure | Rain* | Wind** | Luminosity | Snow |
|---|---|---|---|---|---|---|---|
| 1787488089 | 23.89° C | 92% | 1009.8 hPa | 0 mm | - | - | - |
| 1787487189 | 23.89° C | 92% | 1010 hPa | 0 mm | - | - | - |
| 1787486288 | 23.89° C | 91% | 1010.2 hPa | 0 mm | - | - | - |
| 1787485389 | 23.89° C | 90% | 1010.3 hPa | 0 mm | - | - | - |
| 1787484488 | 23.89° C | 88% | 1010.2 hPa | 0 mm | - | - | - |
| 1787483590 | 24.44° C | 87% | 1010.3 hPa | 0 mm | - | - | - |
| 1787482689 | 24.44° C | 86% | 1010.3 hPa | 0 mm | - | - | - |
| 1787481788 | 24.44° C | 84% | 1010.5 hPa | 0 mm | - | - | - |
| 1787480889 | 24.44° C | 83% | 1010.6 hPa | 0 mm | - | - | - |
| 1787479990 | 24.44° C | 82% | 1010.4 hPa | 0 mm | - | - | - |
| 1787479089 | 25° C | 81% | 1010.2 hPa | 0 mm | - | - | - |
| 1787478188 | 25.56° C | 81% | 1010.2 hPa | 0 mm | - | - | - |
| 1787477289 | 25.56° C | 78% | 1010.2 hPa | 0 mm | - | - | - |
| 1787476389 | 26.11° C | 76% | 1010.1 hPa | 0 mm | - | - | - |
| 1787475489 | 26.67° C | 74% | 1010.1 hPa | 0 mm | - | - | - |
| 1787474589 | 27.22° C | 72% | 1010.3 hPa | 0 mm | - | - | - |
| 1787473689 | 27.78° C | 67% | 1010.2 hPa | 0 mm | - | - | - |
| 1787472790 | 29.44° C | 65% | 1010.5 hPa | 0 mm | - | - | - |
| 1787471890 | 28.33° C | 67% | 1010.4 hPa | 0 mm | - | - | - |
| 1787470989 | 28.89° C | 65% | 1010.6 hPa | 0 mm | - | - | - |
| 1787470089 | 28.89° C | 65% | 1010.8 hPa | 0 mm | - | - | - |
| 1787469190 | 29.44° C | 65% | 1010.7 hPa | 0 mm | - | - | - |
| 1787468290 | 30° C | 62% | 1010.6 hPa | 0 mm | - | - | - |
| 1787467389 | 30.56° C | 61% | 1010.8 hPa | 0 mm | - | - | - |
| 1787466490 | 30.56° C | 62% | 1010.8 hPa | 0 mm | - | - | - |
* Rain latest hour (hover to see other rain measurements)
** Current wind speed in m/s (hover to see current wind gust speed)